Weather in Phan Thiet

Vietnam     10°55′43″N   108°06′18″E
В апреле 2022 года жителям России запретили посещать сайт meteo.paraplan.net по решению Генеральной прокуратуры. Аудитория сайта уменьшилась в 10 раз. Владельцы сайта не видят смысла в поддержке погодного сервера в таких условиях. Сайт будет закрыт в октябре.
temp.,
°C
wind,
m/s
gust,
m/s
humid.,
%
clouds,
%
prec.,
mm/h
press.,
hPa
HPBL,
m
6 october, thu
thu601:00+24nw119295 5.9 101132
04:00+23nw1191100 0.0 101019
07:00+25nne118578 0.1 1012135
10:00+30ese346298 0.1 10121058
13:00+29ese4474100 3.1 1009872
16:00+26ese2383100 4.7 1009236
19:00+25nnw118791 5.4 101127
22:00+24wnw118976 0.0 101218
7 october, fri
fri701:00+23wnw2292100 0.0 101040
04:00+23nnw119198 0.0 101024
07:00+24nne018594 0.0 101173
10:00+29ese226244 0.0 1012823
13:00+31se325799 0.0 10081089
16:00+28ese347552 0.2 1007596
19:00+24ene129387 2.9 101058
22:00+24nw1295100 0.4 101151
8 october, sat
sat801:00+23nnw1193100 0.6 101026
04:00+23nw1191100 0.0 100919
07:00+25n118688 0.0 1011111
10:00+30se116165 0.0 1011921
13:00+31se435872 0.1 10081202
16:00+28ese358084 1.8 1008524
19:00+24e139197 5.9 101087
22:00+24nw1193100 0.2 101148
9 october, sun
sun901:00+23nw2294100 1.1 101035
04:00+23n2293100 0.1 101053
07:00+24wnw1189100 0.1 101162
10:00+27wsw0172100 0.1 1012440
13:00+30sse2261100 0.4 10091011
16:00+28se2276100 2.8 1009349
19:00+25e1187100 5.4 101141
22:00+24nw1190100 0.3 101239
10 october, mon
mon1001:00+24nw1191100 0.4 101139
04:00+23nw119198 0.0 101022
07:00+25ene118598 0.0 1012142
10:00+28sse117087 0.0 1012634
13:00+29se3366100 0.1 1009761
16:00+27ese227793 0.2 1009457
19:00+25s018983 0.6 101145
22:00+24w1191100 0.5 101234